Tracking 25193 objects as of 17-Jan-2022
HD Live streaming from Space Station
objects crossing your sky now

STARLINK-2350

Track STARLINK-2350 now!
10-day predictions
STARLINK-2350 is classified as:


NORAD ID: 47890
Int'l Code: 2021-021AG
Perigee: 440.7 km
Apogee: 443.7 km
Inclination: 53.1 °
Period: 93.3 minutes
Semi major axis: 6813 km
RCS: Unknown
Launch date: March 14, 2021
Source: United States (US)
Launch site: AIR FORCE EASTERN TEST RANGE (AFETR)
aabbcc
Your satellite tracking list
Your tracking list is empty




NASA's NSSDC Master Catalog

Two Line Element Set (TLE):
1 47890U 21021AG  22016.86469499  .00015491  00000-0  34603-3 0  9999
2 47890  53.0535 213.4037 0002220 110.2242 249.9002 15.43735020 47365
Source of the keplerian elements: AFSPC